Location: Newark
(50.0306°N, 2.3272°E)
Time: 08:18:13
(UTC+00:00)

Transit 2A Rocket - Pass Details

Date: 06 December 2019
Orbit: 593 x 910 km, 66.7° (Epoch: 20 January)

Event Time Altitude Azimuth Distance (km) Brightness Sun altitude
Rises 02:42:40 0° 315° (NW) 2,866 - -45.2°
Reaches altitude 10° 02:45:05 10° 305° (NW) 1,981 - -44.9°
Maximum altitude 02:48:55 29° 245° (WSW) 1,169 - -44.3°
Drops below altitude 10° 02:52:57 10° 185° (S) 2,089 - -43.7°
Sets 02:55:34 0° 175° (S) 3,052 - -43.3°
